Powrót do katalogu

STARLINK-36596

AktywnyŁącznośćSSO
NORAD 67670·PAYLOAD·🇺🇸 United States

Wystrzelony Feb 2, 2026 z Vandenberg Space Force Base

Loading…

Następne Przeloty (najbliższe 24 godziny)

TLE

ŚwieżeSource: CelesTrak SupGP

Epoka: Sep 15, 2026, 04:07 UTC

1 67670C 26022Y   26258.17201389 -.00059211  00000+0 -18382-2 0  2583
2 67670  97.2840 289.8391 0000913  90.8645 223.8768 15.33467983    19

Śledź STARLINK-36596 w czasie rzeczywistym z AllMySat

Download on the App Store